DIRECTV 15 1 40663U 15026A 21060.98521634 -.00000110 00000-0 00000+0 0 9992 2 40663 0.0248 108.9408 0000309 129.2618 173.5763 1.00271813 21150 SKY MEXICO-1 1 40664U 15026B 21060.58924163 -.00000242 00000-0 00000-0 0 9990 2 40664 0.0215 124.8760 0002462 235.7318 292.3258 1.00272346 21112 ARIANE 5 R/B 1 40665U 15026C 21060.48494092 .00001620 00000-0 44619-3 0 9990 2 40665 3.5312 195.5640 7162619 204.8484 88.8012 2.43282690 49915 ARIANE 5 DEB [SYLDA] 1 40666U 15026D 21060.46799335 .00269514 63045-6 81417-2 0 9995 2 40666 3.8106 234.9004 6215870 118.0205 316.9612 3.79392002 63372